Home > Time Zones > World Clock > Weather > Belgium > Spa > Past weeks

Flag for Belgium Weather past 2 weeks in Spa, Belgium

Now
38 °F

Overcast.


Feels Like: 34 °F
Forecast: 30 / 44 °F
Wind: 5 mph from Northwest

Location: Spa / La Sauveniere

Current Time: Mar 5, 2015 at 1:01:01 PM

Latest Report: Mar 5, 2015 at 12:00 PM


Visibility: 11 mi

Pressure: 30.70 "Hg

Humidity: 83%

Dew point: 33 °F

Location of SpaLocation

Historic Weather in Spa — Graph

°F

Spa temperature yesterday

Maximum temperature yesterday: 38 °F (at 3:00 PM)
Minimum temperature yesterday: 31 °F (at 7:00 AM)
Average temperature yesterday: 35 °F

Past Weeks' High & Low Weather Summary

 TemperatureHumidityPressure
High47 °F (Mar 1, 3:00 PM)100% (Feb 22, 12:00 AM)30.78 "Hg (Feb 22, 12:00 AM)
Low28 °F (Feb 28, 7:00 AM)49% (Mar 3, 2:00 PM)29.41 "Hg (Feb 21, 4:00 AM)
Average35 °F87%29.98 "Hg
* Reported Feb 18 11:00 AM — Mar 5 11:00 AM, Spa, Weather by CustomWeather, © 2015

Note: Actual official high and low records may vary slightly from our data, if they occured in-between our weather recording intervals... More about our weather records

Advertising

Spa weather history for previous 24 hours

 ConditionsComfort  
Time TempWeatherWind HumidityBarometerVisibility
11:00 AM
Thu, Mar 5
36 °FLow clouds.3 mph88%30.70 "Hg7 mi
10:00 AM35 °FLow clouds.3 mph93%30.71 "HgN/A
9:00 AM34 °FLow clouds.3 mph96%30.69 "Hg1 mi
8:00 AM34 °FDense fog.3 mph98%30.68 "Hg0 mi
7:00 AM34 °FDense fog.3 mph98%30.66 "Hg0 mi
6:00 AM34 °FLow clouds.5 mph99%30.66 "Hg1 mi
5:00 AM34 °FFog.3 mph96%30.64 "Hg1 mi
4:00 AM34 °FDense fog.3 mph97%30.63 "Hg1 mi
3:00 AM34 °FFog.5 mph96%30.61 "Hg2 mi
2:00 AM33 °FLight rain. Low clouds.3 mph97%30.61 "Hg2 mi
1:00 AM35 °FLow clouds.5 mph91%30.58 "Hg7 mi
12:00 AM35 °FLow clouds.6 mph90%30.56 "Hg9 mi
11:00 PM
Wed, Mar 4
35 °FLight rain. Overcast.5 mph87%30.54 "Hg11 mi
9:00 PM36 °FOvercast.5 mph84%30.49 "Hg12 mi
8:00 PM36 °FOvercast.5 mph84%30.47 "Hg13 mi
7:00 PM36 °FOvercast.5 mph83%30.45 "Hg13 mi
6:00 PM37 °FOvercast.6 mph79%30.42 "Hg19 mi
5:00 PM38 °FOvercast.6 mph73%30.38 "Hg22 mi
4:00 PM38 °FScattered clouds.6 mph74%30.36 "Hg17 mi
3:00 PM38 °FOvercast.5 mph71%30.34 "Hg19 mi
2:00 PM38 °FOvercast.6 mph77%30.34 "Hg15 mi
1:00 PM36 °FOvercast.6 mph81%30.35 "Hg12 mi
Weather by CustomWeather, © 2015

See weather overviewHow to use our weather pages